{"data":{"norad_id":61555,"epoch":"2026-09-22T20:54:54.922464Z","epoch_age_seconds":92511,"freshness":"FRESH","line1":"1 61555U 24185D   26265.87146901  .00000234  00000+0  19034-3 0  9997","line2":"2 61555  88.9834  48.1209 0006082 188.4032 171.7038 13.86430855108302","mean_motion":13.86430855,"eccentricity":0.0006082,"inclination_deg":88.9834,"raan_deg":48.1209,"arg_perigee_deg":188.4032,"mean_anomaly_deg":171.7038,"bstar":0.00019034,"rev_number":10830,"period_min":103.86381656228,"perigee_km":936.71392465136,"apogee_km":945.6171242421,"semimajor_km":7319.3025244467,"source":"CELESTRAK","updated_at":"2026-09-23T09:00:20.903486Z"}}